Location: Belfast
(54.5830°N, 5.9330°W)
Time: 14:45:16

ISS - Pass Details

Date: 14 March 2018
Orbit: 403 x 406 km, 51.6° (Epoch: 17 March)

Event Time Altitude Azimuth Distance (km) Brightness Sun altitude
Exits shadow 05:52:45 11° 260° (W) 1,416 -1.8 -7.9°
Maximum altitude 05:55:18 24° 206° (SSW) 895 -2.4 -7.5°
Drops below altitude 10° 05:58:00 10° 151° (SSE) 1,460 -0.7 -7.1°
Sets 06:00:19 0° 137° (SE) 2,316 0.6 -6.8°
